sat.trackr.live / text

‹ back to catalog

STARLINK-2083

NORAD 47676 · 2021-012BJ

PAYLOAD ACTIVE UNKNOWN

§ Identity

Operator
Country
US
Launch date
2021-02-16
Launch site
AFETR
Launch vehicle
Mass (kg)
RCS (m²)

Purposes: comms

External: N2YO · Heavens-Above · Gunter

§ Orbital elements

Epoch: 2026-08-06T01:51:21.333600Z

Period
87.86 min
Inclination
53.0182°
Eccentricity
0.0005141
Mean motion
16.39047605 rev/d
Perigee alt
165.0 km
Apogee alt
171.7 km
Semi-major
6,546.5 km
B*
6.4417e-4
RAAN
254.2294°
Arg perigee
317.0246°
Mean anomaly
43.0398°
Rev number
30,565

§ Raw data

STARLINK-20831 47676U 21012BJ  26218.07733025  .07902359  12399-4  64417-3 0  99902 47676  53.0182 254.2294 0005141 317.0246  43.0398 16.39047605305650

JSON: /api/v1/satellites/47676 · /tle

For live sub-satellite position, see the globe view (requires WebGL).

§ Visibility from observer

Set your observer location to see the next 7 days of passes ≥ 10°. The values pass through the URL so the page stays shareable.

No JS? Fill the form by hand. The geolocation button needs JavaScript.